Location: Street
(51.1247°N, 2.7429°W)
Time: 15:48:17
(UTC+00:00)

Courier 1B Rocket - Visible Passes

Search period start: 26 November 2020 00:00
Search period end: 06 December 2020 00:00
Orbit: 920 x 1202 km, 28.2° (Epoch: 25 November)

Date Brightness Start Highest point End Pass type
(mag) Time Alt. Az. Time Alt. Az. Time Alt. Az.
28 Nov 8.1 06:51:31 10° S 06:51:44 10° S 06:51:59 10° S visible
30 Nov 7.8 06:40:10 10° SSW 06:42:20 11° S 06:44:30 10° SSE visible
01 Dec 7.7 05:40:18 10° S 05:41:38 10° S 05:42:58 10° SSE visible
02 Dec 7.6 06:30:24 10° SSW 06:32:56 12° S 06:35:26 10° SSE visible
03 Dec 7.6 05:29:49 10° SSW 05:32:12 12° S 05:34:36 10° SSE visible
04 Dec 7.6 04:30:05 10° S 04:31:30 11° S 04:32:56 10° SSE visible
04 Dec 7.6 06:21:16 10° SSW 06:23:31 11° S 06:25:45 10° S visible
05 Dec 7.5 05:20:15 10° SSW 05:22:48 12° S 05:25:21 10° SSE visible
